Weather in Puebla de Sanabria

Spain     42°03′16″N   6°37′56″W
temp.,
°C
wind,
m/s
gust,
m/s
humid.,
%
clouds,
%
prec.,
mm/h
press.,
hPa
HPBL,
m
7 may, fri
fri723:00+9nw33875 0.0 101948
02:00+8nw33785 0.0 101940
05:00+8nw227831 0.0 101924
08:00+8nw21775 0.0 101918
11:00+16sw23505 0.0 1018801
14:00+19sw464224 0.0 10171549
17:00+20wsw46428 0.0 10161863
20:00+17sw45520 0.0 10161118
8 may, sat
sat823:00+11nw22800 0.0 101816
02:00+10nw227515 0.0 101712
05:00+9nw117476 0.0 101510
08:00+10n117394 0.0 101410
11:00+15s3658100 0.0 1013752
14:00+18ssw693970 0.0 10101573
17:00+19sw811315 0.0 10081942
20:00+16wsw510440 0.0 10061492
9 may, sun
sun923:00+9nw22630 0.0 100720
02:00+7w11670 0.0 100610
05:00+6s1176100 0.0 100411
08:00+7s31382100 0.3 10031149
11:00+7w41091100 2.9 1003827
14:00+9wsw6871100 3.3 10031333
17:00+8w6107713 1.3 10041290
20:00+8w696540 1.6 10051388
10 may, mon
mon1023:00+4w388932 0.1 1009600
02:00+4wsw3682100 0.1 1010770
05:00+3sw2796100 0.1 1010607
08:00+3wsw1497100 3.3 1010478
11:00+6sw4685100 0.6 1010980
14:00+5ssw3792100 1.9 1010815
17:00+5sw499197 1.5 10081087
20:00+5w389191 2.6 1009843
11 may, tue
tue1123:00+2w3893100 0.3 1013418
02:000wnw249514 0.4 1015102
05:00−1wnw339512 0.0 101772
08:00+1wsw399499 0.2 1017790
11:00+2w3896100 1.1 1019612
14:00+7wnw6106542 1.3 10191494
17:00+8wnw696033 0.2 10201560
20:00+7wnw576533 0.3 10211260